Regional Weather Roundup
Issued by NWS Goodland, KS

Home | Current Version | Previous Version | Text Only | Print | Product List | Glossary Off
Versions: 1 2 3 4 5 6 7 8 9 10 11 12 13 14 15 16 17 18 19 20 21 22 23 24 25 26 27 28 29 30 31 32 33 34 35 36 37 38 39 40 41 42 43 44 45 46 47 48 49 50

000
ASUS43 KGLD 201359
RWRGLD

GOODLAND FORECAST AREA HOURLY WEATHER ROUNDUP
NATIONAL WEATHER SERVICE GOODLAND KS
800 AM MDT WED AUG 20 2014

...OFFICIAL OBSERVATIONS...

CITY           SKY/WX    TMP DP  RH WIND       PRES   REMARKS
GOODLAND KS    MOSUNNY   72  61  68 S14       29.82S
HILL CITY KS   SUNNY     78  64  61 S9        29.80R
IMPERIAL NEB   PTSUNNY   68  62  81 NW7       29.81R
MCCOOK NEB     CLOUDY    74  65  73 S7        29.78R
AKRON CO       CLOUDY    66  58  75 W6        29.90R
BURLINGTON CO  PTSUNNY   77  58  51 SW10      29.85R
LIMON CO       CLOUDY    67  51  56 CALM      29.95R
$$

...UNOFFICIAL OBSERVATIONS...

CITY           SKY/WX    TMP DP  RH WIND       PRES   REMARKS
COLBY KS       SUNNY     75  66  73 S14       29.81S
LENORA KS        N/A     75  32  20 CALM        N/A
NORTON KS      SUNNY     79  61  53 S7        29.78S
SHARON SPRINGS   N/A     72  64  74 S13G20      N/A
WAKEENEY KS      N/A     75  62  64 MISG        N/A
KIT CARSON CO    N/A     73  59  62 MISG        N/A
YUMA CO          N/A     66  64  93 W6          N/A
$$


USA.gov is the U.S. government's official web portal to all federal, state and local government web resources and services.